Flag for U.S.A. Weather past 2 weeks in Owensboro, Kentucky, U.S.A.

Now
44 °F

Sunny.


Feels Like: 38 °F
Forecast: 30 / 56 °F
Wind: 10 mph from Southeast

Location: Owensboro / Daviess


UV Index: 5 (Moderate)

Visibility: 10 mi


Pressure: 30.37 "Hg

Humidity: 48%

Dew point: 25 °F

Location of OwensboroLocation

Historic Weather in Owensboro

°F

Owensboro temperature yesterday

Maximum temperature yesterday: 43 °F (at 3:56 PM)
Minimum temperature yesterday: 35 °F (at 5:56 AM)
Average temperature yesterday: 38 °F

Past Weeks' High & Low Weather Summary

 TemperatureHumidityPressure
High79 °F (Apr 12, 3:56 PM)100% (Apr 2, 11:56 PM)30.38 "Hg (Apr 2, 11:56 PM)
Low31 °F (Apr 16, 2:56 AM)31% (Apr 10, 4:56 PM)29.45 "Hg (Apr 7, 12:56 PM)
Average55 °F73%29.95 "Hg
* Reported Apr 1 10:56 AM — Apr 16 10:56 AM, Owensboro, Weather by CustomWeather, © 2014

Note: Actual official high and low records may vary slightly from our data, if they occured in-between our weather recording intervals... More about our weather records

Advertising

Historic Weather Conditions — Data for Previous 24 hours

 ConditionsComfort  
Time TempWeatherWind HumidityBarometerVisibility
10:56 AM
Apr 16
44 °FSunny.10 mph48%30.37 "Hg10 mi
9:56 AM40 °FSunny.9 mph49%30.37 "Hg10 mi
8:56 AM38 °FSunny.14 mph51%30.38 "Hg10 mi
7:56 AM36 °FSunny.13 mph62%30.37 "Hg10 mi
6:56 AM32 °FClear.7 mph69%30.36 "Hg10 mi
5:56 AM31 °FClear.10 mph72%30.34 "Hg10 mi
4:56 AM32 °FClear.8 mph69%30.33 "Hg10 mi
3:56 AM31 °FClear.No wind85%30.34 "Hg10 mi
2:56 AM31 °FClear.No wind88%30.32 "Hg10 mi
1:56 AM32 °FClear.No wind85%30.31 "Hg10 mi
12:56 AM34 °FClear.No wind70%30.29 "Hg10 mi
11:56 PM
Apr 15
35 °FClear.No wind60%30.29 "Hg10 mi
10:56 PM35 °FClear.No wind68%30.26 "Hg10 mi
9:56 PM37 °FClear.No wind60%30.26 "Hg10 mi
8:56 PM38 °FClear.No wind51%30.25 "Hg10 mi
7:56 PM39 °FSunny.No wind45%30.23 "Hg10 mi
5:56 PM41 °FPartly sunny.8 mph40%30.22 "Hg10 mi
4:56 PM43 °FPartly sunny.13 mph38%30.20 "Hg10 mi
3:56 PM43 °FPartly sunny.16 mph42%30.20 "Hg10 mi
2:56 PM42 °FPartly sunny.14 mph43%30.20 "Hg10 mi
1:56 PM41 °FPartly sunny.9 mph47%30.19 "Hg10 mi
12:56 PM40 °FPartly sunny.14 mph56%30.18 "Hg10 mi
11:56 AM40 °FPartly sunny.15 mph47%30.18 "Hg10 mi
Weather by CustomWeather, © 2014

See weather overview